Location: Easthampton
(42.2676°N, 72.6690°W)
Time: 10:26:44
(UTC+00:00)

CAS-4B - Visible Passes

Search period start: 27 March 2023 00:00
Search period end: 06 April 2023 00:00
Orbit: 510 x 527 km, 43.0° (Epoch: 26 March)

Date Brightness Start Highest point End Pass type
(mag) Time Alt. Az. Time Alt. Az. Time Alt. Az.
27 Mar ? 09:41:06 11° SW 09:44:32 32° SSE 09:48:09 10° E visible
28 Mar ? 09:25:47 17° SSW 09:28:17 36° SSE 09:32:00 10° E visible
29 Mar ? 09:10:22 26° SSW 09:12:02 40° SSE 09:15:49 10° E visible
30 Mar ? 08:54:51 38° SSW 08:55:44 45° SSE 08:59:35 10° E visible
31 Mar ? 08:39:15 50° SSE 08:39:26 50° SSE 08:43:19 10° E visible
01 Apr ? 08:23:35 51° SE 08:23:35 51° SE 08:27:01 10° E visible
01 Apr ? 09:58:47 10° W 10:02:47 79° N 10:06:50 10° E visible
02 Apr ? 08:07:52 41° E 08:07:52 41° E 08:10:40 10° E visible
02 Apr ? 09:42:49 12° W 09:46:27 78° N 09:50:29 10° E visible
03 Apr ? 07:52:07 30° E 07:52:07 30° E 07:54:19 10° E visible
03 Apr ? 09:27:04 17° W 09:30:05 78° N 09:34:07 10° E visible
04 Apr ? 07:36:20 22° E 07:36:20 22° E 07:37:54 10° E visible
04 Apr ? 09:11:17 23° W 09:13:41 79° N 09:17:42 10° E visible
05 Apr ? 07:20:32 16° E 07:20:32 16° E 07:21:28 10° E visible
05 Apr ? 08:55:29 32° W 08:57:15 80° N 09:01:17 10° E visible
